Georgetown, DE

11:33 AM EST on January 18, 2017 (GMT -0500)
Sussex County

Weather History for KGED - March, 2014

Change the Weather History Date:

Monday, March 3, 2014

  Actual Average Record
Temperature  
Mean Temperature 26 °F 41 °F  
Max Temperature 37 °F 50 °F 76 °F (1972)
Min Temperature 14 °F 31 °F 9 °F (2009)
Degree Days  
Heating Degree Days 39 24  
Month to date heating degree days 91 73  
Since 1 July heating degree days 3446 3353  
Cooling Degree Days 0 0  
Month to date cooling degree days 0 0  
Year to date cooling degree days 0 0  
Moisture  
Dew Point 21 °F    
Average Humidity 77    
Maximum Humidity 92    
Minimum Humidity 61    
Precipitation  
Precipitation 0.41 in 0.10 in 0.90 in (1954)
Month to date precipitation 0.50 0.30  
Year to date precipitation 7.68 6.01  
Sea Level Pressure  
Sea Level Pressure 30.12 in    
Wind  
Wind Speed 10 mph (North)    
Max Wind Speed 20 mph    
Max Gust Speed 29 mph    
Visibility 3 miles    
Events Fog , Rain , Snow    
T = Trace of Precipitation, MM = Missing Value Source: NWS Daily Summary

Daily Weather History Graph

Daily Weather History Graph

Search for Another Location

Airport or City:

Trip Planner

Search our weather history database for the weather conditions in past years. The results will help you decide how hot, cold, wet, or windy it might be!

Date:

Astronomy

Mar. 03, 2014 Rise Set
Actual Time 6:30 AM EST 5:56 PM EST
Civil Twilight 6:04 AM EST 6:23 PM EST
Nautical Twilight 5:33 AM EST 6:53 PM EST
Astronomical Twilight 5:02 AM EST 7:24 PM EST
Moon 7:39 AM EST (3/3) 8:54 PM EST (3/3)
Length of Visible Light 12h 18m
Length of Day
11h 25m
Waxing Crescent, 8% of the Moon is Illuminated
Mar 3
Waxing Crescent
Mar 8
First Quarter
Mar 16
Full
Mar 23
Last Quarter
Mar 30
New

Hourly Weather History & Observations

Time (EST) Temp. Windchill Dew Point Humidity Pressure Visibility Wind Dir Wind Speed Gust Speed Precip Events Conditions
12:03 AM 37.0 °F 30.4 °F 35.1 °F 93% 29.98 in 1.8 mi NNE 9.2 mph - N/A   Overcast
12:19 AM 37.0 °F 31.6 °F 35.1 °F 93% 29.97 in 1.8 mi NNE 6.9 mph - N/A   Overcast
12:29 AM 37.0 °F 31.0 °F 35.1 °F 93% 29.96 in 1.8 mi NNE 8.1 mph - N/A   Overcast
12:46 AM 37.0 °F 31.0 °F 34.0 °F 89% 29.97 in 1.8 mi NNE 8.1 mph - N/A   Overcast
12:54 AM 37.0 °F 31.6 °F 34.0 °F 89% 29.98 in 1.8 mi North 6.9 mph - N/A   Overcast
1:37 AM 36.0 °F 29.6 °F 34.0 °F 93% 29.98 in 2.0 mi NNE 8.1 mph - N/A   Overcast
1:54 AM 36.0 °F 27.5 °F 34.0 °F 93% 29.99 in 2.5 mi North 12.7 mph 19.6 mph N/A   Overcast
2:00 AM 35.1 °F 26.9 °F 33.1 °F 92% 29.99 in 3.0 mi North 11.5 mph 19.6 mph 0.00 in   Overcast
2:06 AM 35.1 °F 27.9 °F 33.1 °F 92% 29.99 in 4.0 mi North 9.2 mph - 0.01 in Rain Light Rain
2:20 AM 35.1 °F 28.6 °F 33.1 °F 92% 29.98 in 4.0 mi North 8.1 mph - 0.02 in Rain Light Rain
2:54 AM 34.0 °F 24.6 °F 30.9 °F 89% 29.98 in 4.0 mi North 13.8 mph 19.6 mph 0.07 in Rain Rain
3:54 AM 33.1 °F 24.4 °F 30.9 °F 92% 29.99 in 4.0 mi North 11.5 mph 20.7 mph 0.10 in Rain Rain
4:22 AM 33.1 °F 21.9 °F 32.0 °F 96% 29.99 in 4.0 mi NNE 18.4 mph 24.2 mph 0.04 in Rain Light Freezing Rain
4:33 AM 33.1 °F 22.6 °F 30.9 °F 92% 30.00 in 5.0 mi NNE 16.1 mph 21.9 mph 0.05 in Rain Light Freezing Rain
4:42 AM 33.1 °F 23.9 °F 30.9 °F 92% 30.01 in 5.0 mi North 12.7 mph 21.9 mph 0.06 in Rain Light Freezing Rain
4:48 AM 32.0 °F 23.6 °F 30.2 °F 93% 30.03 in 5.0 mi NNE 10.4 mph 19.6 mph 0.06 in Rain Light Freezing Rain
4:54 AM 32.0 °F 22.5 °F 30.0 °F 92% 30.03 in 5.0 mi NNE 12.7 mph 19.6 mph 0.07 in Rain Light Freezing Rain
5:03 AM 32.0 °F 22.1 °F 28.9 °F 88% 30.01 in 4.0 mi NNE 13.8 mph 23.0 mph 0.01 in Rain Light Freezing Rain
5:13 AM 32.0 °F 21.6 °F 28.0 °F 85% 30.02 in 3.0 mi North 15.0 mph 25.3 mph 0.03 in   Overcast
5:19 AM 30.9 °F 20.7 °F 28.0 °F 89% 30.02 in 4.0 mi North 13.8 mph - 0.03 in Rain Light Freezing Rain
5:29 AM 30.9 °F 19.4 °F 27.0 °F 85% 30.04 in 4.0 mi North 17.3 mph 27.6 mph 0.04 in Rain Light Freezing Rain
5:41 AM 30.9 °F 21.2 °F 27.0 °F 85% 30.05 in 2.0 mi NNE 12.7 mph 21.9 mph 0.06 in Rain Light Freezing Rain
5:49 AM 30.2 °F 19.8 °F 26.6 °F 86% 30.04 in 2.0 mi North 13.8 mph 25.3 mph 0.07 in   Overcast
5:54 AM 30.0 °F 18.7 °F 27.0 °F 88% 30.05 in 2.5 mi North 16.1 mph 23.0 mph 0.08 in   Overcast
6:05 AM 30.0 °F 19.1 °F 26.1 °F 85% 30.06 in 4.0 mi North 15.0 mph 28.8 mph 0.00 in Snow Light Snow
6:43 AM 28.0 °F 17.5 °F 24.1 °F 85% 30.08 in 7.0 mi North 12.7 mph 21.9 mph 0.01 in   Overcast
6:54 AM 28.0 °F 18.6 °F 24.1 °F 85% 30.10 in 4.0 mi NNE 10.4 mph 19.6 mph 0.01 in   Overcast
7:17 AM 27.0 °F 14.3 °F 21.9 °F 81% 30.11 in 2.0 mi NNE 17.3 mph 24.2 mph 0.01 in Snow Light Snow
7:20 AM 27.0 °F 18.0 °F 21.9 °F 81% 30.12 in 1.2 mi North 9.2 mph 24.2 mph 0.01 in Snow Light Snow
7:24 AM 27.0 °F 14.7 °F 23.0 °F 85% 30.13 in 0.8 mi North 16.1 mph 24.2 mph 0.02 in Snow Light Snow
7:49 AM 26.6 °F 16.2 °F 21.2 °F 80% 30.13 in 0.2 mi North 11.5 mph 21.9 mph 0.02 in Fog , Snow Snow
7:54 AM 26.1 °F 16.2 °F 23.0 °F 88% 30.15 in 0.2 mi North 10.4 mph 19.6 mph 0.02 in Fog , Snow Snow
8:04 AM 25.0 °F 14.2 °F 21.9 °F 88% 30.15 in 0.2 mi North 11.5 mph 18.4 mph 0.01 in Fog , Snow Heavy Snow
8:12 AM 25.0 °F 13.6 °F 21.0 °F 85% 30.16 in 0.2 mi NNW 12.7 mph 19.6 mph 0.01 in Fog , Snow Heavy Snow
8:23 AM 24.1 °F 12.5 °F 21.0 °F 88% 30.17 in 0.5 mi North 12.7 mph 20.7 mph 0.02 in Fog , Snow Snow
8:54 AM 24.1 °F 13.1 °F 19.9 °F 84% 30.16 in 0.5 mi North 11.5 mph 20.7 mph 0.02 in Fog , Snow Snow
9:28 AM 23.0 °F 10.1 °F 19.0 °F 85% 30.16 in 0.5 mi North 15.0 mph 21.9 mph 0.01 in Fog , Snow Snow
9:40 AM 21.9 °F 10.4 °F 18.0 °F 85% 30.16 in 0.8 mi North 11.5 mph 19.6 mph 0.01 in Snow Light Snow
9:54 AM 21.9 °F 10.4 °F 18.0 °F 85% 30.17 in 0.5 mi North 11.5 mph 20.7 mph 0.01 in Fog , Snow Snow
10:54 AM 19.9 °F 7.9 °F 16.0 °F 85% 30.19 in 0.5 mi North 11.5 mph 23.0 mph 0.01 in Fog , Snow Snow
11:11 AM 19.9 °F 9.3 °F 16.0 °F 85% 30.19 in 0.2 mi North 9.2 mph 20.7 mph 0.00 in Fog , Snow Snow
11:18 AM 19.9 °F 8.6 °F 16.0 °F 85% 30.19 in 0.5 mi North 10.4 mph - 0.00 in Fog , Snow Snow
11:54 AM 19.9 °F 10.1 °F 15.1 °F 81% 30.18 in 1.2 mi North 8.1 mph - 0.01 in Snow Light Snow
12:25 PM 19.9 °F 8.6 °F 15.1 °F 81% 30.18 in 1.0 mi North 10.4 mph 19.6 mph 0.00 in Snow Light Snow
12:32 PM 19.9 °F 8.6 °F 15.1 °F 81% 30.18 in 0.8 mi North 10.4 mph 20.7 mph 0.00 in Snow Light Snow
12:49 PM 19.4 °F 9.5 °F 15.8 °F 86% 30.19 in 0.8 mi North 8.1 mph - 0.00 in Snow Light Snow
12:54 PM 19.9 °F 8.6 °F 16.0 °F 85% 30.19 in 0.8 mi North 10.4 mph 17.3 mph 0.00 in Snow Light Snow
1:14 PM 19.9 °F 10.1 °F 15.1 °F 81% 30.18 in 0.8 mi North 8.1 mph 19.6 mph 0.00 in Snow Light Snow
1:37 PM 19.0 °F 7.5 °F 14.0 °F 81% 30.18 in 1.0 mi North 10.4 mph - 0.00 in Snow Light Snow
1:54 PM 19.9 °F 8.6 °F 15.1 °F 81% 30.18 in 1.2 mi North 10.4 mph - 0.01 in Snow Light Snow
2:03 PM 19.9 °F 10.1 °F 15.1 °F 81% 30.18 in 1.0 mi North 8.1 mph - 0.00 in Snow Light Snow
2:17 PM 19.9 °F 7.9 °F 15.1 °F 81% 30.17 in 0.8 mi North 11.5 mph 18.4 mph 0.00 in Snow Light Snow
2:28 PM 19.0 °F 6.1 °F 14.0 °F 81% 30.17 in 0.8 mi North 12.7 mph - 0.00 in Snow Light Snow
2:54 PM 19.9 °F 6.7 °F 15.1 °F 81% 30.19 in 0.8 mi North 13.8 mph 19.6 mph 0.00 in Snow Light Snow
3:04 PM 19.9 °F 6.7 °F 14.0 °F 78% 30.18 in 1.0 mi North 13.8 mph 20.7 mph 0.00 in Snow Light Snow
3:11 PM 19.9 °F 7.9 °F 14.0 °F 78% 30.19 in 1.5 mi North 11.5 mph 20.7 mph 0.00 in Snow Light Snow
3:19 PM 19.9 °F 8.6 °F 14.0 °F 78% 30.19 in 2.5 mi North 10.4 mph - 0.00 in Snow Light Snow
3:51 PM 19.4 °F 6.6 °F 12.2 °F 74% 30.20 in 3.0 mi North 12.7 mph 21.9 mph 0.00 in Snow Light Snow
3:54 PM 19.9 °F 6.7 °F 12.9 °F 74% 30.20 in 3.0 mi North 13.8 mph 21.9 mph 0.00 in Snow Light Snow
4:54 PM 21.0 °F 11.4 °F 12.0 °F 68% 30.23 in 10.0 mi North 8.1 mph - 0.00 in   Overcast
5:54 PM 21.0 °F 11.4 °F 10.0 °F 63% 30.25 in 10.0 mi North 8.1 mph - N/A   Partly Cloudy
6:54 PM 19.9 °F 13.4 °F 10.9 °F 68% 30.27 in 10.0 mi North 4.6 mph - N/A   Overcast
7:54 PM 19.0 °F 11.1 °F 9.0 °F 65% 30.32 in 10.0 mi Variable 5.8 mph - N/A   Clear
8:54 PM 17.1 °F 10.0 °F 7.0 °F 65% 30.33 in 10.0 mi North 4.6 mph - N/A   Clear
9:54 PM 16.0 °F 8.8 °F 7.0 °F 68% 30.33 in 10.0 mi NNW 4.6 mph - N/A   Clear
10:54 PM 15.1 °F 9.4 °F 6.1 °F 68% 30.34 in 10.0 mi NNW 3.5 mph - N/A   Clear
11:54 PM 14.0 °F 8.2 °F 5.0 °F 67% 30.33 in 10.0 mi NNW 3.5 mph - N/A   Clear